Portada
METAR-TAF:

METAR-TAF

Aeropuertos :

Maragheh, Irán

latitud: 37-20-55N, longitud: 046-07-35E, altitud: 1340 m

Observación

El informe se hizo hace 1 hora y 37 minutos, a las 21:00 UTC
Viento 12 kt del este-noreste
Temperatura 23°C
Humedad 27%
Presión 1017 hPa
Visibilidad 10 km o más
sin nubes por debajo de 1500 m y sin presencia de cumulonimbus.

METAR: OITM 282100Z 07012KT CAVOK 23/03 Q1017

Hora: 03:07 (22:37 UTC)


TAF: falta

Observaciones y pronósticos meteorológicos de más de 4000 aeropuertos (mensajes METAR y TAF).

Los puntos amarillos y rojos representan las estaciones disponibles.

Ponga el ratón en el punto deseado para ver el nombre de la estación.

Haga clic para ver las observaciones y los pronósticos meteorológicos.

Para cambiar el mapa : haga clic en los botones verdes con una cruz de color negro para hacer un zoom, en el botón verde con un guión para alejar o en las flechas verdes para mapas adyacentes.


METAR-TAF: